Location: Newark
(27.9675°N, 86.8869°E)
Time: 07:41:09
(UTC+00:00)

Vanguard 3 - Pass Details

Date: 24 October 2019
Orbit: 507 x 3263 km, 33.4° (Epoch: 21 November)

Event Time Altitude Azimuth Distance (km) Brightness Sun altitude
Rises 12:00:50 0° 199° (SSW) 5,725 11.9 -6.4°
Reaches altitude 10° 12:08:28 10° 172° (S) 3,920 10.7 -8.0°
Maximum altitude 12:11:32 12° 154° (SSE) 3,434 10.2 -8.7°
Drops below altitude 10° 12:14:11 10° 135° (SE) 3,260 9.9 -9.3°
Enters shadow 12:16:54 - 116° (ESE) 3,387 9.8 -9.9°
Sets 12:18:52 0° 104° (ESE) 3,668 - -10.3°
